TimeCST,TemperatureF,Dew PointF,Humidity,Sea Level PressureIn,VisibilityMPH,Wind Direction,Wind SpeedMPH,Gust SpeedMPH,PrecipitationIn,Events,Conditions,WindDirDegrees,DateUTC
12:35 AM,49.1,44.8,85,30.31,7.0,Calm,Calm,-,N/A,,Overcast,0,2013-01-07 06:35:00
12:55 AM,49.8,45.0,83,30.30,7.0,Calm,Calm,-,N/A,,Mostly Cloudy,0,2013-01-07 06:55:00
1:15 AM,49.5,45.3,86,30.29,7.0,Calm,Calm,-,N/A,,Overcast,0,2013-01-07 07:15:00
1:35 AM,50.0,45.5,85,30.29,5.0,NNW,3.5,-,N/A,,Overcast,330,2013-01-07 07:35:00
1:55 AM,50.0,45.1,83,30.28,7.0,Calm,Calm,-,N/A,,Overcast,0,2013-01-07 07:55:00
2:15 AM,49.3,45.0,85,30.27,7.0,Calm,Calm,-,N/A,,Overcast,0,2013-01-07 08:15:00
2:35 AM,49.1,44.8,85,30.26,7.0,NNW,3.5,-,N/A,,Scattered Clouds,330,2013-01-07 08:35:00
2:55 AM,49.3,45.5,87,30.27,7.0,NW,5.8,-,N/A,,Mostly Cloudy,320,2013-01-07 08:55:00
3:15 AM,49.6,45.7,86,30.27,5.0,NNW,4.6,-,N/A,,Overcast,340,2013-01-07 09:15:00
3:35 AM,50.0,46.0,86,30.27,7.0,North,3.5,-,N/A,,Overcast,360,2013-01-07 09:35:00
3:55 AM,50.0,45.7,85,30.27,5.0,North,4.6,-,N/A,,Overcast,360,2013-01-07 09:55:00
4:15 AM,50.0,44.8,82,30.26,7.0,North,4.6,-,N/A,,Overcast,360,2013-01-07 10:15:00
4:35 AM,49.8,44.2,81,30.24,7.0,North,3.5,-,N/A,,Overcast,360,2013-01-07 10:35:00
4:55 AM,49.6,43.5,79,30.24,7.0,Calm,Calm,-,N/A,,Overcast,0,2013-01-07 10:55:00
5:15 AM,48.4,42.8,81,30.23,7.0,North,4.6,-,N/A,,Scattered Clouds,360,2013-01-07 11:15:00
5:35 AM,47.5,42.8,84,30.23,5.0,North,5.8,-,N/A,,Haze,360,2013-01-07 11:35:00
5:55 AM,46.8,42.3,84,30.23,7.0,North,3.5,-,N/A,,Clear,350,2013-01-07 11:55:00
6:15 AM,46.4,41.9,84,30.23,5.0,North,4.6,-,N/A,,Scattered Clouds,360,2013-01-07 12:15:00
6:35 AM,45.9,41.9,86,30.23,5.0,North,6.9,-,N/A,,Scattered Clouds,350,2013-01-07 12:35:00
6:55 AM,45.5,41.4,85,30.22,5.0,Calm,Calm,-,N/A,,Clear,0,2013-01-07 12:55:00
7:15 AM,45.5,41.4,85,30.23,7.0,Calm,Calm,-,N/A,,Clear,0,2013-01-07 13:15:00
7:35 AM,45.3,41.2,85,30.23,5.0,North,3.5,-,N/A,,Clear,10,2013-01-07 13:35:00
7:55 AM,45.3,41.5,87,30.24,5.0,North,3.5,-,0.06,,Unknown,350,2013-01-07 13:55:00
8:15 AM,46.8,42.3,84,30.25,4.0,North,5.8,-,N/A,,Haze,360,2013-01-07 14:15:00
8:35 AM,48.0,42.4,81,30.25,5.0,North,6.9,-,N/A,,Haze,350,2013-01-07 14:35:00
8:55 AM,48.9,43.2,80,30.24,4.0,North,5.8,-,N/A,,Haze,10,2013-01-07 14:55:00
9:35 AM,52.3,44.8,75,30.25,5.0,North,4.6,-,N/A,,Haze,360,2013-01-07 15:35:00
10:15 AM,56.5,46.8,70,30.25,5.0,North,4.6,-,N/A,,Haze,350,2013-01-07 16:15:00
10:35 AM,58.1,47.1,67,30.25,7.0,North,4.6,-,N/A,,Clear,10,2013-01-07 16:35:00
10:55 AM,59.2,47.7,66,30.24,7.0,North,4.6,-,N/A,,Clear,10,2013-01-07 16:55:00
11:15 AM,60.8,47.7,62,30.23,5.0,North,4.6,-,N/A,,Haze,10,2013-01-07 17:15:00
11:55 AM,64.2,48.6,57,30.19,5.0,NE,5.8,-,N/A,,Haze,40,2013-01-07 17:55:00
12:15 PM,64.9,48.7,56,30.17,7.0,NE,4.6,-,N/A,,Clear,40,2013-01-07 18:15:00
12:55 PM,66.7,49.5,54,30.12,7.0,East,4.6,-,N/A,,Clear,80,2013-01-07 18:55:00
1:15 PM,68.5,49.8,51,30.11,7.0,ENE,10.4,-,N/A,,Scattered Clouds,70,2013-01-07 19:15:00
1:35 PM,67.8,50.0,53,30.11,7.0,ENE,3.5,-,N/A,,Mostly Cloudy,70,2013-01-07 19:35:00
1:55 PM,67.6,50.2,54,30.10,7.0,SE,4.6,-,N/A,,Overcast,130,2013-01-07 19:55:00
2:15 PM,68.2,50.2,53,30.09,7.0,SSE,6.9,-,N/A,,Overcast,160,2013-01-07 20:15:00
2:35 PM,68.2,50.5,53,30.08,7.0,ESE,9.2,-,N/A,,Overcast,120,2013-01-07 20:35:00
2:55 PM,68.5,50.9,53,30.07,7.0,SSE,5.8,-,N/A,,Overcast,150,2013-01-07 20:55:00
3:15 PM,68.9,50.9,53,30.07,5.0,SE,5.8,-,N/A,,Haze,130,2013-01-07 21:15:00
3:55 PM,69.1,51.3,53,30.06,5.0,ESE,11.5,-,N/A,,Haze,110,2013-01-07 21:55:00
4:15 PM,68.7,51.4,54,30.06,7.0,East,10.4,-,N/A,,Overcast,100,2013-01-07 22:15:00
4:55 PM,68.0,52.5,58,30.06,7.0,ESE,11.5,-,N/A,,Overcast,110,2013-01-07 22:55:00
5:15 PM,67.8,52.9,59,30.05,7.0,East,10.4,-,N/A,,Overcast,100,2013-01-07 23:15:00
5:35 PM,67.3,52.9,60,30.05,7.0,East,9.2,-,N/A,,Overcast,90,2013-01-07 23:35:00
5:55 PM,66.7,53.1,61,30.06,7.0,East,9.2,-,N/A,,Overcast,90,2013-01-07 23:55:00
6:15 PM,66.4,53.6,63,30.05,10.0,East,8.1,-,N/A,,Overcast,80,2013-01-08 00:15:00
6:35 PM,66.2,54.1,65,30.05,7.0,East,6.9,-,N/A,,Overcast,80,2013-01-08 00:35:00
6:55 PM,66.0,54.1,65,30.06,7.0,East,5.8,-,N/A,,Overcast,80,2013-01-08 00:55:00
7:15 PM,65.7,54.5,67,30.05,7.0,East,5.8,-,N/A,,Overcast,80,2013-01-08 01:15:00
7:35 PM,65.3,54.5,68,30.06,10.0,ENE,4.6,-,N/A,,Overcast,60,2013-01-08 01:35:00
7:55 PM,64.8,55.0,71,30.06,10.0,NE,5.8,-,N/A,,Overcast,50,2013-01-08 01:55:00
8:15 PM,63.9,55.8,75,30.05,7.0,ENE,4.6,-,N/A,,Overcast,60,2013-01-08 02:15:00
8:55 PM,63.5,55.8,76,30.05,7.0,NE,5.8,-,N/A,,Overcast,50,2013-01-08 02:55:00
9:15 PM,63.3,55.8,76,30.05,7.0,ENE,3.5,-,N/A,,Overcast,60,2013-01-08 03:15:00
9:35 PM,62.8,55.9,78,30.04,7.0,ENE,5.8,-,N/A,,Overcast,60,2013-01-08 03:35:00
9:55 PM,62.6,56.3,80,30.04,7.0,NE,4.6,-,N/A,,Overcast,40,2013-01-08 03:55:00
10:35 PM,61.9,56.7,83,30.02,7.0,ENE,5.8,-,N/A,,Overcast,70,2013-01-08 04:35:00
10:55 PM,61.9,56.8,84,30.01,7.0,ENE,5.8,-,N/A,,Overcast,70,2013-01-08 04:55:00
11:15 PM,61.7,57.0,85,30.01,7.0,ENE,3.5,-,N/A,,Overcast,60,2013-01-08 05:15:00
11:35 PM,61.3,56.8,85,30.00,7.0,Calm,Calm,-,N/A,,Overcast,0,2013-01-08 05:35:00
11:55 PM,61.0,56.8,86,29.99,5.0,Calm,Calm,-,N/A,,Scattered Clouds,0,2013-01-08 05:55:00